Regional Weather Roundup
Issued by NWS

Home | Current Version | Previous Version | Graphics & Text | Print | Product List | Glossary On
Versions: 1 2 3 4 5 6 7 8 9 10 11 12 13 14 15 16 17 18 19 20 21 22 23 24 25 26 27 28 29 30 31 32 33 34 35 36 37 38 39 40 41 42 43 44 45 46 47 48 49 50
000
ASUS43 KLOT 230208
RWRIL

ILLINOIS REGIONAL WEATHER ROUNDUP
NATIONAL WEATHER SERVICE CHICAGO/ROMEOVILLE IL
900 PM CDT FRI MAY 22 2015

NOTE: "FAIR" INDICATES FEW OR NO CLOUDS BELOW 12,000 FEET WITH NO
SIGNIFICANT WEATHER AND/OR OBSTRUCTIONS TO VISIBILITY.

* THESE STATIONS ARE NOT UNDER NWS QUALITY CONTROL. THEY ALSO MAY NOT
  REPORT WEATHER SUCH AS PRECIPITATION OR FOG.

ILZ001-002-007-009-015-016-024-230300-
NORTHWEST ILLINOIS

CITY           SKY/WX    TMP DP  RH WIND       PRES   REMARKS
MOLINE         CLOUDY    64  48  56 CALM      30.20R
STERLING*      CLOUDY    64  46  52 E14       30.22R
SAVANNA*       CLOUDY    65  46  49 E5        30.21R
$$

ILZ003-004-008-010-011-017-018-230300-
NORTH CENTRAL ILLINOIS

CITY           SKY/WX    TMP DP  RH WIND       PRES   REMARKS
ROCKFORD       CLOUDY    61  35  37 E5        30.26R
FREEPORT*      CLOUDY    60  44  54 E13       30.24R
ROCHELLE*      CLOUDY    61  35  37 E10       30.24R
DE KALB*       CLOUDY    56  33  42 E8        30.26R
PERU*          CLOUDY    65  38  37 E10       30.23R
$$

ILZ005-006-012>014-019>023-230300-
NORTHEAST ILLINOIS

CITY           SKY/WX    TMP DP  RH WIND       PRES   REMARKS
CHICAGO-OHARE  CLOUDY    53  28  38 E7        30.27R
CHICAGO-MIDWAY CLOUDY    55  32  41 E8        30.27S
AURORA         CLOUDY    58  30  34 E8        30.26R
LANSING*       CLOUDY    54  34  48 NE5       30.27R
JOLIET*        CLOUDY    58  35  41 E7        30.26R
WAUKEGAN       CLOUDY    46  33  60 NE7       30.28R
DUPAGE AIRPORT CLOUDY    55  29  36 E6        30.25R
KANKAKEE*      CLOUDY    59  40  48 CALM      30.26R
WHEELING       CLOUDY    51  29  42 E5        30.29S
MORRIS*        CLOUDY    59  35  40 E6        30.22S
ROMEOVILLE*    CLOUDY    55  31  41 E8        30.26R
NORTHERLY ISL    N/A     51  39  63 NE6         N/A
$$

LMZ740>746-230300-
SOUTHERN LAKE MICHIGAN

STATION/POSITION SKY/WX   TEMP    WIND        PRES    VSBY  WAVE
                          AIR SEA DIR/SP/G                  HT/PER
                          (F)     (DEG/KT/KT) (MB)    (MI)  (FT/S)
SOUTHERN BUOY              44 38   80/  8/  8 1026.3F         0
HARRISON CRIB              49      90/  9/ 12   N/A
BURNHAM HARBOR             51      70/  5/  7   N/A
CALUMET HARBOR             52      70/  8/ 10   N/A
BURNS HARBOR               54      70/ 12/ 14 1025.1S
MICHIGAN CITY              54      40/ 11/ 12   N/A
MICHIGAN CITY 6N           53 51   80/  8/ 10   N/A           2/ 3
ST. JOSEPH                 55 54   90/ 10/ 10   N/A           1/ 4
$$

ILZ025>027-034>036-040-047-049-050-058-095>099-230300-
WEST-CENTRAL ILLINOIS

CITY           SKY/WX    TMP DP  RH WIND       PRES   REMARKS
QUINCY         CLOUDY    64  53  67 W5        30.25R
GALESBURG*     CLOUDY    67  42  41 SW3       30.22R
MACOMB*        CLOUDY    65  47  50 SW3       30.24S
JACKSONVILLE*  CLOUDY    70  54  57 SW3       30.24R
PITTSFIELD*    CLOUDY    67  52  59 SW5       30.26R
$$

ILZ028>032-037-038-041>044-048-051>054-059>061-230300-
CENTRAL ILLINOIS

CITY           SKY/WX    TMP DP  RH WIND       PRES   REMARKS
PONTIAC        CLOUDY    65  39  38 E9        30.24R
BLOOMINGTON    CLOUDY    69  43  39 W5        30.24R
DECATUR        CLOUDY    70  43  37 SW7       30.23R
PEORIA         CLOUDY    72  42  34 W5        30.22R
LACON*         CLOUDY    62  44  51 S5        30.21R
LINCOLN*       CLOUDY    70  43  37 CALM      30.21R
SPRINGFIELD    CLOUDY    70  47  43 SW3       30.24R
TAYLORVILLE    CLOUDY    64  48  55 SW5       30.25R
$$

ILZ033-039-045-046-055>057-062-063-230300-
EAST-CENTRAL ILLINOIS

CITY           SKY/WX    TMP DP  RH WIND       PRES   REMARKS
CHAMPAIGN      CLOUDY    69  42  37 W6        30.23R
DANVILLE*      MOCLDY    66  40  38 NE8       30.21R
RANTOUL*       CLOUDY    70  39  32 NE12G22   30.24R
MATTOON        CLOUDY    68  46  45 SW6       30.23R
PARIS*         CLOUDY    68  49  49 S7        30.24R
$$

ILZ079-100>102-230300-
SOUTHWEST ILLINOIS

CITY           SKY/WX    TMP DP  RH WIND       PRES   REMARKS
BELLEVILLE     CLOUDY    66  56  70 CALM      30.24R
CAHOKIA*       CLOUDY    67  53  61 CALM      30.24R
SPARTA*        MOCLDY    66  54  65 S3        30.26S
$$

ILZ064>066-069>071-074>076-080>082-084>086-088>090-092>094-230300-
SOUTH-CENTRAL ILLINOIS

CITY           SKY/WX    TMP DP  RH WIND       PRES   REMARKS
CARBONDALE     MOCLDY    63  57  81 CALM      30.26R
CAIRO*         CLOUDY    63  58  83 CALM      30.26S
EFFINGHAM*     CLOUDY    64  50  60 CALM      30.26R
MARION         MOCLDY    63  59  88 CALM      30.27S
MT. VERNON     MOCLDY    61  52  72 CALM      30.26S
CENTRALIA*     MOCLDY    62  54  75 SW3       30.26R
SALEM*         MOCLDY    67  54  62 SW3       30.26R
METROPOLIS*    CLOUDY    63  58  86 CALM      30.26R
$$

ILZ067-068-072-073-078-083-087-091-230300-
SOUTHEAST ILLINOIS

CITY           SKY/WX    TMP DP  RH WIND       PRES   REMARKS
LAWRENCEVILLE  CLOUDY    66  51  58 SW3       30.25R
FLORA*         CLOUDY    65  55  69 SW3       30.25S
FAIRFIELD*     MOCLDY    64  55  73 CALM      30.25R
HARRISBURG*    CLOUDY    65  55  70 CALM      30.27S
ROBINSON*      CLOUDY    66  51  57 CALM      30.25R
CARMI*         CLOUDY    64  50  60 SW3       30.25S
$$

ABBREVIATIONS USED IN REMARKS
   TC - TEMPERATURE IN CELSIUS
  WCI - WIND CHILL INDEX
   HX - HEAT INDEX
  VSB - VISIBILITY
$$




USA.gov is the U.S. government's official web portal to all federal, state and local government web resources and services.